Weather History for Frankfort, MI

Change the Weather History Date:

Sunday, June 30, 2013

  Actual Average (KTVC) Record (KTVC)
Temperature  
Mean Temperature 66 °F 68 °F  
Max Temperature 74 °F 79 °F 99 °F (1931)
Min Temperature 59 °F 56 °F 40 °F (1943)
Degree Days  
Heating Degree Days 0 2  
Month to date heating degree days 114  
Since 1 June heating degree days 112  
Since 1 July heating degree days 7548  
Cooling Degree Days 2 4  
Month to date cooling degree days 81  
Year to date cooling degree days 101  
Since 1 June cooling degree days 81  
Growing Degree Days 16 (Base 50)    
Moisture  
Dew Point 50 °F    
Average Humidity 57    
Maximum Humidity 75    
Minimum Humidity 32    
Precipitation  
Precipitation 0.00 in 0.11 in 2.27 in (1953)
Month to date precipitation 3.16  
Year to date precipitation 14.71  
Sea Level Pressure  
Sea Level Pressure 29.94 in    
Wind  
Wind Speed 6 mph (NNE)    
Max Wind Speed 14 mph    
Max Gust Speed 21 mph    
Visibility 10 miles    
Events      
T = Trace of Precipitation, MM = Missing Value Source: NWS Daily Summary

Daily Weather History Graph

Daily Weather History Graph

Search for Another Location

Airport:

Trip Planner

Search our weather history database for the weather conditions in past years. The results will help you decide how hot, cold, wet, or windy it might be!

Date:

Astronomy

Jun. 30, 2013 Rise Set
Actual Time 6:03 AM EDT 9:33 PM EDT
Civil Twilight 5:26 AM EDT 10:10 PM EDT
Nautical Twilight 4:37 AM EDT 10:59 PM EDT
Astronomical Twilight 3:34 AM EDT 12:01 AM EDT
Moon 1:13 AM EDT (6/30) 2:37 PM EDT (6/30)
Length of Visible Light 16h 44m
Length of Day
15h 30m
Last Quarter, 45% of the Moon is Illuminated
Jun 30
Last Quarter
Jul 8
New
Jul 15
First Quarter
Jul 22
Full
Jul 29
Last Quarter

Hourly Weather History & Observations

Time (EDT) Temp. Dew Point Humidity Pressure Visibility Wind Dir Wind Speed Gust Speed Precip Events Conditions
12:13 AM 60.8 °F 51.3 °F 71% 29.83 in 10.0 mi NNE 5.8 mph - N/A   Clear
12:33 AM 60.3 °F 51.3 °F 72% 29.83 in 10.0 mi NNE 9.2 mph - N/A   Clear
12:53 AM 60.3 °F 50.5 °F 70% 29.83 in 10.0 mi North 5.8 mph - N/A   Clear
1:14 AM 60.1 °F 50.2 °F 70% 29.83 in 10.0 mi North 5.8 mph - N/A   Scattered Clouds
1:34 AM 59.9 °F 50.5 °F 71% 29.83 in 10.0 mi NE 5.8 mph - N/A   Clear
1:54 AM 59.9 °F 50.5 °F 71% 29.83 in 10.0 mi NE 4.6 mph - N/A   Scattered Clouds
2:14 AM 60.4 °F 50.4 °F 69% 29.84 in 10.0 mi NE 3.5 mph - N/A   Mostly Cloudy
2:34 AM 60.8 °F 50.5 °F 69% 29.84 in 10.0 mi NE 4.6 mph - N/A   Overcast
2:54 AM 60.8 °F 50.9 °F 70% 29.84 in 10.0 mi NNE 6.9 mph - N/A   Overcast
3:14 AM 60.6 °F 50.7 °F 70% 29.84 in 10.0 mi North 4.6 mph - N/A   Mostly Cloudy
3:34 AM 61.0 °F 50.9 °F 69% 29.84 in 10.0 mi NNE 6.9 mph - N/A   Overcast
3:54 AM 61.7 °F 50.9 °F 68% 29.84 in 10.0 mi NNE 3.5 mph - N/A   Overcast
4:15 AM 60.8 °F 51.3 °F 71% 29.84 in 10.0 mi North 4.6 mph - N/A   Scattered Clouds
4:35 AM 60.3 °F 52.0 °F 74% 29.85 in 10.0 mi North 4.6 mph - N/A   Mostly Cloudy
4:55 AM 60.1 °F 52.0 °F 75% 29.85 in 10.0 mi North 5.8 mph - N/A   Scattered Clouds
5:15 AM 60.4 °F 51.8 °F 73% 29.86 in 10.0 mi NNE 4.6 mph - N/A   Clear
5:35 AM 60.8 °F 51.8 °F 72% 29.87 in 10.0 mi NNE 3.5 mph - N/A   Scattered Clouds
5:55 AM 61.3 °F 51.8 °F 71% 29.87 in 10.0 mi NNE 4.6 mph - N/A   Scattered Clouds
6:15 AM 60.8 °F 52.2 °F 73% 29.88 in 10.0 mi North 5.8 mph - N/A   Scattered Clouds
6:35 AM 61.2 °F 51.8 °F 71% 29.88 in 10.0 mi NNE 3.5 mph - N/A   Scattered Clouds
6:56 AM 61.7 °F 51.6 °F 69% 29.89 in 10.0 mi NNE 3.5 mph - N/A   Clear
7:16 AM 61.7 °F 52.0 °F 70% 29.89 in 10.0 mi NE 3.5 mph - N/A   Clear
7:36 AM 63.0 °F 51.8 °F 67% 29.90 in 10.0 mi Calm Calm - N/A   Clear
7:56 AM 63.9 °F 52.0 °F 65% 29.90 in 10.0 mi ENE 4.6 mph - N/A   Clear
8:16 AM 64.9 °F 52.2 °F 63% 29.91 in 10.0 mi ENE 5.8 mph - N/A   Clear
8:36 AM 66.0 °F 52.2 °F 61% 29.91 in 10.0 mi NE 6.9 mph - N/A   Clear
8:56 AM 66.7 °F 52.5 °F 60% 29.92 in 10.0 mi NE 5.8 mph - N/A   Clear
9:16 AM 67.5 °F 52.0 °F 58% 29.93 in 10.0 mi NE 6.9 mph - N/A   Clear
9:36 AM 68.5 °F 52.0 °F 55% 29.93 in 10.0 mi ENE 6.9 mph - N/A   Clear
9:57 AM 69.3 °F 53.4 °F 57% 29.94 in 10.0 mi NNE 5.8 mph - N/A   Clear
10:12 AM 67.6 °F 54.3 °F 62% 29.94 in 10.0 mi NNE 3.5 mph - N/A   Clear
10:32 AM 69.4 °F 55.2 °F 60% 29.94 in 10.0 mi NNE 4.6 mph - N/A   Clear
10:52 AM 69.4 °F 54.9 °F 60% 29.94 in 10.0 mi North 6.9 mph - N/A   Clear
11:12 AM 70.2 °F 55.9 °F 61% 29.94 in 10.0 mi NNE 6.9 mph - N/A   Clear
11:32 AM 70.0 °F 55.0 °F 59% 29.95 in 10.0 mi North 10.4 mph - N/A   Clear
11:52 AM 69.8 °F 55.0 °F 59% 29.95 in 10.0 mi North 10.4 mph - N/A   Clear
12:12 PM 70.2 °F 54.3 °F 57% 29.96 in 10.0 mi North 8.1 mph - N/A   Clear
12:32 PM 70.7 °F 53.2 °F 54% 29.96 in 10.0 mi North 10.4 mph - N/A   Clear
12:53 PM 71.2 °F 50.9 °F 49% 29.96 in 10.0 mi North 11.5 mph - N/A   Clear
1:13 PM 72.3 °F 50.5 °F 46% 29.96 in 10.0 mi North 9.2 mph - N/A   Clear
1:33 PM 72.3 °F 48.7 °F 43% 29.97 in 10.0 mi North 9.2 mph - N/A   Clear
1:53 PM 72.1 °F 46.9 °F 41% 29.97 in 10.0 mi North 9.2 mph - N/A   Clear
2:13 PM 72.0 °F 45.7 °F 39% 29.98 in 10.0 mi North 10.4 mph 19.6 mph N/A   Clear
2:33 PM 72.5 °F 46.0 °F 39% 29.98 in 10.0 mi North 8.1 mph 17.3 mph N/A   Clear
2:53 PM 72.5 °F 43.9 °F 36% 29.98 in 10.0 mi North 11.5 mph 17.3 mph N/A   Clear
3:13 PM 72.7 °F 46.4 °F 39% 29.98 in 10.0 mi North 9.2 mph 17.3 mph N/A   Clear
3:34 PM 73.0 °F 44.8 °F 36% 29.98 in 10.0 mi North 13.8 mph 18.4 mph N/A   Clear
3:54 PM 73.6 °F 41.5 °F 32% 29.99 in 10.0 mi North 10.4 mph 20.7 mph N/A   Clear
4:14 PM 73.8 °F 42.4 °F 32% 29.99 in 10.0 mi North 10.4 mph 19.6 mph N/A   Clear
4:34 PM 74.1 °F 44.1 °F 34% 29.99 in 10.0 mi NNE 11.5 mph 18.4 mph N/A   Clear
4:54 PM 73.8 °F 45.1 °F 36% 29.99 in 10.0 mi North 8.1 mph 18.4 mph N/A   Clear
5:14 PM 73.6 °F 45.5 °F 37% 29.99 in 10.0 mi North 12.7 mph 17.3 mph N/A   Clear
5:34 PM 73.6 °F 46.6 °F 38% 29.99 in 10.0 mi North 6.9 mph - N/A   Clear
5:54 PM 73.8 °F 46.6 °F 38% 29.99 in 10.0 mi NNE 11.5 mph - N/A   Clear
6:14 PM 72.9 °F 45.0 °F 37% 29.99 in 10.0 mi NNE 8.1 mph 19.6 mph N/A   Clear
6:34 PM 73.2 °F 45.5 °F 37% 30.00 in 10.0 mi North 5.8 mph - N/A   Clear
6:55 PM 72.5 °F 46.4 °F 39% 30.00 in 10.0 mi North 5.8 mph - N/A   Clear
7:15 PM 71.8 °F 46.8 °F 41% 30.00 in 10.0 mi North 8.1 mph - N/A   Clear
7:35 PM 70.9 °F 46.4 °F 42% 30.01 in 10.0 mi North 5.8 mph - N/A   Clear
7:55 PM 70.0 °F 46.4 °F 43% 30.01 in 10.0 mi NNE 5.8 mph - N/A   Clear
8:15 PM 68.4 °F 48.6 °F 49% 30.01 in 10.0 mi NNW 4.6 mph - N/A   Clear
8:35 PM 68.0 °F 48.2 °F 49% 30.01 in 10.0 mi Calm Calm - N/A   Clear
8:55 PM 67.1 °F 48.0 °F 50% 30.01 in 10.0 mi Calm Calm - N/A   Clear
9:15 PM 63.9 °F 50.0 °F 61% 30.01 in 10.0 mi Calm Calm - N/A   Clear
9:35 PM 61.7 °F 49.8 °F 65% 30.02 in 10.0 mi Calm Calm - N/A   Clear
9:56 PM 60.6 °F 49.1 °F 66% 30.02 in 10.0 mi Calm Calm - N/A   Clear
10:16 PM 60.4 °F 48.2 °F 64% 30.02 in 10.0 mi NNE 3.5 mph - N/A   Clear
10:36 PM 60.4 °F 48.6 °F 65% 30.03 in 10.0 mi Calm Calm - N/A   Clear
10:56 PM 60.4 °F 48.9 °F 66% 30.03 in 10.0 mi NNE 3.5 mph - N/A   Clear
11:16 PM 60.3 °F 49.3 °F 67% 30.04 in 10.0 mi Calm Calm - N/A   Clear
11:36 PM 60.8 °F 48.2 °F 63% 30.04 in 10.0 mi Calm Calm - N/A   Clear
11:56 PM 60.3 °F 48.6 °F 65% 30.05 in 10.0 mi Calm Calm - N/A   Clear